sat.trackr.live / text

‹ back to catalog

STARLINK-4565

NORAD 53562 · 2022-101AM

PAYLOAD ACTIVE UNKNOWN

§ Identity

Operator
Country
US
Launch date
2022-08-19
Launch site
AFETR
Launch vehicle
Mass (kg)
RCS (m²)

Purposes: comms

External: N2YO · Heavens-Above · Gunter

§ Orbital elements

Epoch: 2026-05-25T04:48:31.260384Z

Period
95.44 min
Inclination
53.2136°
Eccentricity
0.0001191
Mean motion
15.08843855 rev/d
Perigee alt
538.9 km
Apogee alt
540.6 km
Semi-major
6,917.9 km
B*
1.1231e-5
RAAN
70.7932°
Arg perigee
74.2911°
Mean anomaly
285.8213°
Rev number
20,865

§ Raw data

STARLINK-45651 53562U 22101AM  26145.20036181 -.00000109  00000+0  11231-4 0  99982 53562  53.2136  70.7932 0001191  74.2911 285.8213 15.08843855208654

JSON: /api/v1/satellites/53562 · /tle

For live sub-satellite position, see the globe view (requires WebGL).

§ Visibility from observer

Set your observer location to see the next 7 days of passes ≥ 10°. The values pass through the URL so the page stays shareable.

No JS? Fill the form by hand. The geolocation button needs JavaScript.